Location: Bannatyne
(13.0833°N, 59.5333°W)
Time: 01:11:11
(UTC+00:00)

Transit 4A - Pass Details

Date: 18 January 2021
Orbit: 866 x 978 km, 66.8° (Epoch: 03 March)

Event Time Altitude Azimuth Distance (km) Brightness Sun altitude
Rises 23:31:55 0° 213° (SSW) 3,617 11.7 -23.7°
Reaches altitude 10° 23:34:32 10° 219° (SW) 2,685 11.0 -24.4°
Maximum altitude 23:40:34 48° 292° (WNW) 1,240 8.8 -25.8°
Enters shadow 23:44:56 19° 359° (N) 2,130 9.6 -26.8°
